Weather WX

World > North America > United States > Missouri

Cuba, Missouri Regional Weather

Lat: 38.06N, Lon: 91.4W
Wx Zone: MOZ072
Warning FLW WEATHER ALERT - (More Info. Click Here) Warning
Feedback

Cuba, MO Regional Weather

Expires:201906161700;;167026
ASUS43 KLSX 161607
RWRMO 

WEATHER SUMMARY FOR MISSOURI
NATIONAL WEATHER SERVICE SPRINGFIELD MO
1100 AM CDT SUN JUN 16 2019

NOTE: "FAIR" INDICATES FEW OR NO CLOUDS BELOW 12,000 FEET WITH NO
       SIGNIFICANT WEATHER AND/OR OBSTRUCTIONS TO VISIBILITY.
       CURRENT SKY AND/OR WEATHER CONDITIONS ARE NOT AVAILABLE FOR
       CHILLICOTHE AND FARMINGTON.


MOZ072>076-082>087-097>100-106>115-161700-
...SOUTH CENTRAL AND SOUTHEAST MISSOURI...
  
CITY           SKY/WX    TMP DP  RH WIND       PRES   REMARKS
CAPE GIRARDEAU CLOUDY    82  71  69 SW13      29.87R                  
FARMINGTON     SUNNY     79  68  69 SE8       29.86F                  
POPLAR BLUFF   CLOUDY    80  74  81 SW13      29.87S                  
WEST PLAINS    SUNNY     77  65  66 VRB3      29.89F                  
                                       
$$
  

SKY/WX - Weather  TMP - Temperature  DP - Dew Point  RH - Relative Humidity
WIND - Wind Direction/Speed PRES - Barometric Pressure VSB - Visibility
WCI - Wind Chill Index E13G22 Wind - East Wind 13 mph/Gusts of 22 mph